Year,Month,Day,Hour,Minute,Value (Times are PST for temperature in C)
2016,10,20,10,05,12.70
2016,10,20,10,06,12.80
2016,10,20,10,07,12.90
2016,10,20,10,08,13.00
2016,10,20,10,09,13.00
2016,10,20,10,10,13.10
2016,10,20,10,11,13.20
2016,10,20,10,12,13.20
2016,10,20,10,13,13.30
2016,10,20,10,14,13.30
2016,10,20,10,15,13.30
2016,10,20,10,16,13.40
2016,10,20,10,17,13.40
2016,10,20,10,18,13.50
2016,10,20,10,19,13.50
2016,10,20,10,20,13.60
2016,10,20,10,21,13.60
2016,10,20,10,22,13.70
2016,10,20,10,23,13.80
2016,10,20,10,24,13.80
2016,10,20,10,25,13.80
2016,10,20,10,26,13.90
2016,10,20,10,27,13.90
2016,10,20,10,28,14.00
2016,10,20,10,29,14.10
2016,10,20,10,30,14.10
2016,10,20,10,31,14.10
2016,10,20,10,32,14.10
2016,10,20,10,33,14.10
2016,10,20,10,34,14.10
2016,10,20,10,35,14.10
2016,10,20,10,36,14.10
2016,10,20,10,37,14.10
2016,10,20,10,38,14.20
2016,10,20,10,39,14.30
2016,10,20,10,40,14.30
2016,10,20,10,41,14.30
2016,10,20,10,42,14.40
2016,10,20,10,43,14.40
2016,10,20,10,44,14.40
2016,10,20,10,45,14.50
2016,10,20,10,46,14.50
2016,10,20,10,47,14.50
2016,10,20,10,48,14.60
2016,10,20,10,49,14.70
2016,10,20,10,50,14.70
2016,10,20,10,51,14.80
2016,10,20,10,52,14.80
2016,10,20,10,53,14.80
2016,10,20,10,54,14.90
2016,10,20,10,55,14.90
2016,10,20,10,56,14.90
2016,10,20,10,57,14.90
2016,10,20,10,58,15.00
2016,10,20,10,59,15.00
2016,10,20,11,00,15.10
2016,10,20,11,01,15.10
2016,10,20,11,02,15.10
2016,10,20,11,03,15.20
2016,10,20,11,04,15.20
2016,10,20,11,05,15.20
2016,10,20,11,06,15.10
2016,10,20,11,07,15.10
2016,10,20,11,08,15.10
2016,10,20,11,09,15.10
2016,10,20,11,10,15.10
2016,10,20,11,11,15.10
2016,10,20,11,12,15.10
2016,10,20,11,13,15.20
2016,10,20,11,14,15.20
2016,10,20,11,15,15.20
2016,10,20,11,16,15.20
2016,10,20,11,17,15.20
2016,10,20,11,18,15.30
2016,10,20,11,19,15.30
2016,10,20,11,20,15.30
2016,10,20,11,21,15.40
2016,10,20,11,22,15.40
2016,10,20,11,23,15.50
2016,10,20,11,24,15.60
2016,10,20,11,25,15.60
2016,10,20,11,26,15.60
2016,10,20,11,27,15.60
2016,10,20,11,28,15.60
2016,10,20,11,29,15.60
2016,10,20,11,30,15.60
2016,10,20,11,31,15.70
2016,10,20,11,32,15.70
2016,10,20,11,33,15.70
2016,10,20,11,34,15.70
2016,10,20,11,35,15.70
2016,10,20,11,36,15.60
2016,10,20,11,37,15.60
2016,10,20,11,38,15.60
2016,10,20,11,39,15.60
2016,10,20,11,40,15.50
2016,10,20,11,41,15.50
2016,10,20,11,42,15.40
2016,10,20,11,43,15.30
2016,10,20,11,44,15.30
2016,10,20,11,45,15.30
2016,10,20,11,46,15.30
2016,10,20,11,47,15.30
2016,10,20,11,48,15.30
2016,10,20,11,49,15.40
2016,10,20,11,50,15.40
2016,10,20,11,51,15.50
2016,10,20,11,52,15.60
2016,10,20,11,53,15.60
2016,10,20,11,54,15.70
2016,10,20,11,55,15.70
2016,10,20,11,56,15.70
2016,10,20,11,57,15.70
2016,10,20,11,58,15.70
2016,10,20,11,59,15.80
2016,10,20,12,00,15.80
2016,10,20,12,01,15.90
2016,10,20,12,02,15.80
2016,10,20,12,03,15.80
2016,10,20,12,04,15.80
2016,10,20,12,05,15.70
2016,10,20,12,06,15.70
2016,10,20,12,07,15.60
2016,10,20,12,08,15.60
2016,10,20,12,09,15.50
2016,10,20,12,10,15.50
2016,10,20,12,11,15.60
2016,10,20,12,12,15.60
2016,10,20,12,13,15.60
2016,10,20,12,14,15.60
2016,10,20,12,15,15.60
2016,10,20,12,16,15.60
2016,10,20,12,17,15.70
2016,10,20,12,18,15.70
2016,10,20,12,19,15.80
2016,10,20,12,20,15.80
2016,10,20,12,21,15.90
2016,10,20,12,22,15.90
2016,10,20,12,23,16.00
2016,10,20,12,24,16.10
2016,10,20,12,25,16.10
2016,10,20,12,26,16.10
2016,10,20,12,27,16.10
2016,10,20,12,28,16.20
2016,10,20,12,29,16.20
2016,10,20,12,30,16.30
2016,10,20,12,31,16.20
2016,10,20,12,32,16.20
2016,10,20,12,33,16.20
2016,10,20,12,34,16.20
2016,10,20,12,35,16.20
2016,10,20,12,36,16.20
2016,10,20,12,37,16.20
2016,10,20,12,38,16.10
2016,10,20,12,39,16.10
2016,10,20,12,40,16.10
2016,10,20,12,41,16.10
2016,10,20,12,42,16.10
2016,10,20,12,43,16.10
2016,10,20,12,44,16.20
2016,10,20,12,45,16.20
2016,10,20,12,46,16.30
2016,10,20,12,47,16.30
2016,10,20,12,48,16.40
2016,10,20,12,49,16.50
2016,10,20,12,50,16.50
2016,10,20,12,51,16.50
2016,10,20,12,52,16.40
2016,10,20,12,53,16.40
2016,10,20,12,54,16.40
2016,10,20,12,55,16.40
2016,10,20,12,56,16.40
2016,10,20,12,57,16.40
2016,10,20,12,58,16.40
2016,10,20,12,59,16.40
2016,10,20,13,00,16.40
2016,10,20,13,01,16.30
2016,10,20,13,02,16.40
2016,10,20,13,03,16.40
2016,10,20,13,04,16.40
2016,10,20,13,05,16.40
2016,10,20,13,06,16.40
2016,10,20,13,07,16.40
2016,10,20,13,08,16.40
2016,10,20,13,09,16.40
2016,10,20,13,10,16.40
2016,10,20,13,11,16.40
2016,10,20,13,12,16.40
2016,10,20,13,13,16.40
2016,10,20,13,14,16.30
2016,10,20,13,15,16.30
2016,10,20,13,16,16.30
2016,10,20,13,17,16.30
2016,10,20,13,18,16.40
2016,10,20,13,19,16.40
2016,10,20,13,20,16.40
2016,10,20,13,21,16.40
2016,10,20,13,22,16.40
2016,10,20,13,23,16.30
2016,10,20,13,24,16.20
2016,10,20,13,25,16.10
2016,10,20,13,26,16.00
2016,10,20,13,27,15.90
2016,10,20,13,28,15.90
2016,10,20,13,29,15.80
2016,10,20,13,30,15.80
2016,10,20,13,31,15.70
2016,10,20,13,32,15.70
2016,10,20,13,33,15.70
2016,10,20,13,34,15.70
2016,10,20,13,35,15.70
2016,10,20,13,36,15.70
2016,10,20,13,37,15.60
2016,10,20,13,38,15.60
2016,10,20,13,39,15.50
2016,10,20,13,40,15.40
2016,10,20,13,41,15.30
2016,10,20,13,42,15.30
2016,10,20,13,43,15.40
2016,10,20,13,44,15.50
2016,10,20,13,45,15.50
2016,10,20,13,46,15.60
2016,10,20,13,47,15.60
2016,10,20,13,48,15.60
2016,10,20,13,49,15.70
2016,10,20,13,50,15.70
2016,10,20,13,51,15.60
2016,10,20,13,52,15.60
2016,10,20,13,53,15.60
2016,10,20,13,54,15.60
2016,10,20,13,55,15.50
2016,10,20,13,56,15.50
2016,10,20,13,57,15.40
2016,10,20,13,58,15.40
2016,10,20,13,59,15.40
2016,10,20,14,00,15.30
2016,10,20,14,01,15.20
2016,10,20,14,02,15.10
2016,10,20,14,03,15.10
2016,10,20,14,04,15.10
2016,10,20,14,05,15.10
2016,10,20,14,06,15.10
2016,10,20,14,07,15.10
2016,10,20,14,08,15.10
2016,10,20,14,09,15.20
2016,10,20,14,10,15.20
2016,10,20,14,11,15.30
2016,10,20,14,12,15.30
2016,10,20,14,13,15.40
2016,10,20,14,14,15.40
2016,10,20,14,15,15.40
2016,10,20,14,16,15.50
2016,10,20,14,17,15.50
2016,10,20,14,18,15.50
2016,10,20,14,19,15.50
2016,10,20,14,20,15.50
2016,10,20,14,21,15.50
2016,10,20,14,22,15.60
2016,10,20,14,23,15.60
2016,10,20,14,24,15.70
2016,10,20,14,25,15.80
2016,10,20,14,26,15.80
2016,10,20,14,27,15.90
2016,10,20,14,28,15.90
2016,10,20,14,29,15.90
2016,10,20,14,30,15.90
2016,10,20,14,31,16.00
2016,10,20,14,32,16.00
2016,10,20,14,33,16.10
2016,10,20,14,34,16.10
2016,10,20,14,35,16.10
2016,10,20,14,36,16.10
2016,10,20,14,37,16.10
2016,10,20,14,38,16.10
2016,10,20,14,39,16.00
2016,10,20,14,40,16.00
2016,10,20,14,41,16.00
2016,10,20,14,42,16.10
2016,10,20,14,43,16.10
2016,10,20,14,44,16.10
2016,10,20,14,45,16.20
2016,10,20,14,46,16.20
2016,10,20,14,47,16.20
2016,10,20,14,48,16.20
2016,10,20,14,49,16.20
2016,10,20,14,50,16.20
2016,10,20,14,51,16.20
2016,10,20,14,52,16.20
2016,10,20,14,53,16.10
2016,10,20,14,54,16.10
2016,10,20,14,55,16.10
2016,10,20,14,56,16.10
2016,10,20,14,57,16.20
2016,10,20,14,58,16.20
2016,10,20,14,59,16.20
2016,10,20,15,00,16.30
2016,10,20,15,01,16.20
2016,10,20,15,02,16.20
2016,10,20,15,03,16.20
2016,10,20,15,04,16.10
2016,10,20,15,05,16.10
2016,10,20,15,06,16.00
2016,10,20,15,07,16.00
2016,10,20,15,08,15.90
2016,10,20,15,09,15.90
2016,10,20,15,10,15.80
2016,10,20,15,11,15.80
2016,10,20,15,12,15.70
2016,10,20,15,13,15.70
2016,10,20,15,14,15.70
2016,10,20,15,15,15.60
2016,10,20,15,16,15.60
2016,10,20,15,17,15.50
2016,10,20,15,18,15.50
2016,10,20,15,19,15.40
2016,10,20,15,20,15.40
2016,10,20,15,21,15.40
2016,10,20,15,22,15.30
2016,10,20,15,23,15.30
2016,10,20,15,24,15.40
2016,10,20,15,25,15.40
2016,10,20,15,26,15.40
2016,10,20,15,27,15.50
2016,10,20,15,28,15.50
2016,10,20,15,29,15.60
2016,10,20,15,30,15.70
2016,10,20,15,31,15.70
2016,10,20,15,32,15.80
2016,10,20,15,33,15.80
2016,10,20,15,34,15.80
2016,10,20,15,35,15.90
2016,10,20,15,36,15.90
2016,10,20,15,37,15.90
2016,10,20,15,38,15.90
2016,10,20,15,39,15.90
2016,10,20,15,40,15.80
2016,10,20,15,41,15.80
2016,10,20,15,42,15.90
2016,10,20,15,43,15.90
2016,10,20,15,44,15.90
2016,10,20,15,45,15.90
2016,10,20,15,46,16.00
2016,10,20,15,47,16.00
2016,10,20,15,48,16.00
2016,10,20,15,49,16.00
2016,10,20,15,50,16.00
2016,10,20,15,51,16.00
2016,10,20,15,52,16.10
2016,10,20,15,53,16.10
2016,10,20,15,54,16.10
2016,10,20,15,55,16.10
2016,10,20,15,56,16.10
2016,10,20,15,57,16.10
2016,10,20,15,58,16.00
2016,10,20,15,59,16.00
2016,10,20,16,00,15.90
2016,10,20,16,01,15.90
2016,10,20,16,02,15.90
2016,10,20,16,03,15.90
2016,10,20,16,04,15.90
2016,10,20,16,05,15.90
2016,10,20,16,06,16.00
2016,10,20,16,07,16.00
2016,10,20,16,08,16.00
2016,10,20,16,09,16.00
2016,10,20,16,10,16.00
2016,10,20,16,11,15.90
2016,10,20,16,12,15.90
2016,10,20,16,13,15.90
2016,10,20,16,14,15.90
2016,10,20,16,15,15.80
2016,10,20,16,16,15.80
2016,10,20,16,17,15.80
2016,10,20,16,18,15.80
2016,10,20,16,19,15.70
2016,10,20,16,20,15.70
2016,10,20,16,21,15.70
2016,10,20,16,22,15.70
2016,10,20,16,23,15.60
2016,10,20,16,24,15.60
2016,10,20,16,25,15.60
2016,10,20,16,26,15.60
2016,10,20,16,27,15.60
2016,10,20,16,28,15.50
2016,10,20,16,29,15.50
2016,10,20,16,30,15.50
2016,10,20,16,31,15.50
2016,10,20,16,32,15.50
2016,10,20,16,33,15.50
2016,10,20,16,34,15.50
2016,10,20,16,35,15.50
2016,10,20,16,36,15.50
2016,10,20,16,37,15.40
2016,10,20,16,38,15.40
2016,10,20,16,39,15.40
2016,10,20,16,40,15.40
2016,10,20,16,41,15.40
2016,10,20,16,42,15.40
2016,10,20,16,43,15.30
2016,10,20,16,44,15.30
2016,10,20,16,45,15.30
2016,10,20,16,46,15.30
2016,10,20,16,47,15.30
2016,10,20,16,48,15.30
2016,10,20,16,49,15.20
2016,10,20,16,50,15.20
2016,10,20,16,51,15.20
2016,10,20,16,52,15.20
2016,10,20,16,53,15.20
2016,10,20,16,54,15.20
2016,10,20,16,55,15.20
2016,10,20,16,56,15.10
2016,10,20,16,57,15.10
2016,10,20,16,58,15.10
2016,10,20,16,59,15.10
2016,10,20,17,00,15.00
2016,10,20,17,01,15.00
2016,10,20,17,02,15.00
2016,10,20,17,03,14.90
2016,10,20,17,04,14.90
2016,10,20,17,05,14.90
2016,10,20,17,06,14.90
2016,10,20,17,07,14.90
2016,10,20,17,08,14.90
2016,10,20,17,09,14.90
2016,10,20,17,10,14.80
2016,10,20,17,11,14.80
2016,10,20,17,12,14.80
2016,10,20,17,13,14.80
2016,10,20,17,14,14.80
2016,10,20,17,15,14.80
2016,10,20,17,16,14.70
2016,10,20,17,17,14.70
2016,10,20,17,18,14.70
2016,10,20,17,19,14.70
2016,10,20,17,20,14.70
2016,10,20,17,21,14.70
2016,10,20,17,22,14.60
2016,10,20,17,23,14.60
2016,10,20,17,24,14.60
2016,10,20,17,25,14.60
2016,10,20,17,26,14.60
2016,10,20,17,27,14.60
2016,10,20,17,28,14.60
2016,10,20,17,29,14.60
2016,10,20,17,30,14.60
2016,10,20,17,31,14.60
2016,10,20,17,32,14.60
2016,10,20,17,33,14.50
2016,10,20,17,34,14.50
2016,10,20,17,35,14.50
2016,10,20,17,36,14.50
2016,10,20,17,37,14.50
2016,10,20,17,38,14.50
2016,10,20,17,39,14.40
2016,10,20,17,40,14.40
2016,10,20,17,41,14.40
2016,10,20,17,42,14.40
2016,10,20,17,43,14.30
2016,10,20,17,44,14.30
2016,10,20,17,45,14.30
2016,10,20,17,46,14.20
2016,10,20,17,47,14.20
2016,10,20,17,48,14.20
2016,10,20,17,49,14.10
2016,10,20,17,50,14.10
2016,10,20,17,51,14.00
2016,10,20,17,52,13.90
2016,10,20,17,53,13.90
2016,10,20,17,54,13.80
2016,10,20,17,55,13.70
2016,10,20,17,56,13.70
2016,10,20,17,57,13.60
2016,10,20,17,58,13.60
2016,10,20,17,59,13.50
2016,10,20,18,00,13.50
2016,10,20,18,01,13.40
2016,10,20,18,02,13.30
2016,10,20,18,03,13.30
2016,10,20,18,04,13.20
2016,10,20,18,05,13.20
2016,10,20,18,06,13.10
2016,10,20,18,07,13.00
2016,10,20,18,08,13.00
2016,10,20,18,09,12.90
2016,10,20,18,10,12.90
2016,10,20,18,11,12.80
2016,10,20,18,12,12.80
2016,10,20,18,13,12.70
2016,10,20,18,14,12.70
2016,10,20,18,15,12.70
2016,10,20,18,16,12.70
2016,10,20,18,17,12.70
2016,10,20,18,18,12.70
2016,10,20,18,19,12.70
2016,10,20,18,20,12.70
2016,10,20,18,21,12.70
2016,10,20,18,22,12.70
2016,10,20,18,23,12.70
2016,10,20,18,24,12.70
